{"data":{"norad_id":48468,"intl_designator":"2021-040AS","name":"STARLINK-2685","alt_names":[],"object_type":"PAYLOAD","status":"ACTIVE","operator":null,"country":"US","launch_date":"2021-05-09","launch_site_code":"AFETR","launch_vehicle":null,"mission":null,"orbit_class":"UNKNOWN","rcs_meters":null,"size_class":null,"mass_kg":null,"dimensions":null,"purposes":["comms"],"wikipedia_slug":null,"has_3d_model":false,"image_url":null,"decayed_at":null,"tle_current":{"epoch":"2026-05-25T02:53:51.718272Z","epoch_age_seconds":78752,"freshness":"FRESH","line1":"1 48468U 21040AS  26145.12073748  .00000857  00000+0  39380-4 0  9993","line2":"2 48468  53.1574 195.8878 0001572  86.0631 274.0550 15.31699970278215","mean_motion":15.3169997,"eccentricity":0.0001572,"inclination_deg":53.1574,"raan_deg":195.8878,"arg_perigee_deg":86.0631,"mean_anomaly_deg":274.055,"bstar":3.938e-5,"rev_number":27821,"period_min":94.013189802439,"perigee_km":469.66344117638,"apogee_km":471.8167281318,"semimajor_km":6848.8770846541,"source":"CELESTRAK","updated_at":"2026-05-25T13:38:16.720703Z"}}}